Terminal Aerodrome Forecast
Issued by NWS Columbia, SC

Home | Current Version | Previous Version | Text Only | Print | Product List | Glossary On
Versions: 1 2 3 4 5 6 7 8 9 10 11 12 13 14 15 16 17 18 19 20 21 22 23 24 25 26 27 28 29 30 31 32 33 34 35 36 37 38 39 40 41 42 43 44 45 46 47 48 49 50
000
FTAK31 PAJN 181100
TAFAGS
TAF
PAGS 181134Z 1812/1912 VRB03KT P6SM VCSH OVC060
     FM181400 34005KT P6SM -RA BKN030 OVC050
     FM181900 12011KT 5SM -RA BR BKN015 OVC030
      AMD NOT SKED=

USA.gov is the U.S. government's official web portal to all federal, state and local government web resources and services.